Regional Weather Roundup
Issued by NWS

Home | Current Version | Previous Version | Text Only | Print | Product List | Glossary On
Versions: 1 2 3 4 5 6 7 8 9 10 11 12 13 14 15 16 17 18 19 20 21 22 23 24 25 26 27 28 29 30 31 32 33 34 35 36 37 38 39 40 41 42 43 44 45 46 47 48 49 50
000
ASUS43 KMKX 111259
RWRWI

WISCONSIN REGIONAL WEATHER ROUNDUP
NATIONAL WEATHER SERVICE MILWAUKEE/SULLIVAN WI
700 AM CST MON DEC 11 2017

NOTE: "FAIR" INDICATES FEW OR NO CLOUDS BELOW 12,000 FEET WITH NO
SIGNIFICANT WEATHER AND/OR OBSTRUCTIONS TO VISIBILITY.

WIZ001-002-006>008-014>016-023>028-111400-
NORTHWEST WISCONSIN

CITY           SKY/WX    TMP DP  RH WIND       PRES   REMARKS
SUPERIOR ARPT  CLOUDY    21  20  96 CALM      29.74F FOG
ASHLAND        LGT SNOW  20  17  88 S3        29.75F FOG
HAYWARD        LGT SNOW  22  19  89 S5        29.72F FOG     WCI  16
SIREN          CLOUDY    25  23  92 SE3       29.72F
CUMBERLAND     CLOUDY    23  21  93 SE7       29.72F FOG     WCI  15
RICE LAKE      CLOUDY    24  23  97 CALM      29.75F
CHETEK         CLOUDY    24  22  93 SE6       29.75F WCI  17
LADYSMITH      CLOUDY    23  22  94 SE3       29.78F
EAU CLAIRE     NOT AVBL
MENOMONIE      CLOUDY    26  24  93 SE5       29.77F WCI  21
NEW RICHMOND   LGT SNOW  27  24  91 S8        29.72F WCI  18
OSCEOLA        CLOUDY    27  27 100 SE7       29.74F WCI  19
$$

WIZ003>005-009-010-017-018-111400-
NORTH CENTRAL WISCONSIN

CITY           SKY/WX    TMP DP  RH WIND       PRES   REMARKS
MANITOWISH WTR LGT SNOW  16  16 100 S6        29.75F WCI   7
ARBOR VITAE    LGT SNOW  19  17  90 SE6       29.75F WCI  11
WOODRUFF       LGT SNOW  19  17  90 SE6       29.75F WCI  11
RHINELANDER    CLOUDY    18  17  96 SE6       29.77F FOG     WCI  10
EAGLE RIVER    FLURRIES  17  13  86 S6        29.77F WCI   8
LAND O LAKES   FLURRIES  16  14  90 S3        29.78F
PHILLIPS       CLOUDY    19  18  99 S8        29.75F WCI   8
TOMAHAWK       CLOUDY    18  16  92 CALM      29.78F FOG
MEDFORD        CLOUDY    19  18  95 S7        29.77F FOG     WCI  10
MERRILL        CLOUDY    19  18  94 S5        29.81F FOG     WCI  13
$$

WIZ029-030-035-036-043>047-111400-
CENTRAL WISCONSIN

CITY           SKY/WX    TMP DP  RH WIND       PRES   REMARKS
WAUSAU         CLOUDY    20  18  92 S7        29.80F FOG     WCI  11
MOSINEE        LGT SNOW  19  19 100 SE8       29.82F WCI   9
MARSHFIELD     CLOUDY    22  20  92 S10       29.78F WCI  11
STEVENS POINT  CLOUDY    20  19  96 S7        29.84F WCI  11
WAUPACA        CLOUDY    24  20  87 SE6       29.87F WCI  17
WAUTOMA        FLURRIES  22  20  92 SE5       29.86F WCI  16
WISC RAPIDS    CLOUDY    22  20  92 S6        29.84F WCI  14
CAMP DOUGLAS   NOT AVBL
$$

WIZ011>013-019>022-031-037>040-048>050-111400-
NORTHEAST WISCONSIN

CITY           SKY/WX    TMP DP  RH WIND       PRES   REMARKS
ANTIGO         CLOUDY    18  16  93 S9        29.81F WCI   6
SHAWANO        LGT SNOW  22  18  83 CALM      29.89S
OCONTO         CLOUDY    22  17  83 CALM      29.91F
STURGEON BAY   LGT SNOW  21  16  81 S5        29.91S WCI  15
GREEN BAY      FLURRIES  22  20  92 S6        29.91S WCI  14
MANITOWOC      LGT SNOW  22  19  89 SW8       29.92F FOG     WCI  12
APPLETON       LGT SNOW  21  18  86 S9        29.86F WCI  11
CLINTONVILLE   NOT AVBL
OSHKOSH        CLOUDY    22  20  92 S9        29.88F WCI  12
$$

WIZ032>034-041-042-053>061-111400-
SOUTHWEST WISCONSIN

CITY           SKY/WX    TMP DP  RH WIND       PRES   REMARKS
LA CROSSE      PTCLDY    27  22  81 S8        29.79F WCI  19
SPARTA         CLOUDY    26  23  88 S5        29.82F WCI  20
VIROQUA        CLOUDY    24  24 100 S10       29.80F WCI  13
BOSCOBEL       CLOUDY    26  21  81 CALM      29.84F
PRAIRIE DU CHI CLOUDY    28  22  78 E7        29.83F WCI  21
PLATTEVILLE    CLOUDY    25  24  96 SE8       29.85F WCI  17
$$

WIZ056-057-062-063-064-067-068-111400-
SOUTH CENTRAL WISCONSIN

CITY           SKY/WX    TMP DP  RH WIND       PRES   REMARKS
REEDSBURG      CLOUDY    24  22  94 S7        29.86F WCI  16
BARABOO/DELLS  CLOUDY    24  21  90 S7        29.85F WCI  15
LONE ROCK      CLOUDY    25  23  92 E8        29.85F FOG     WCI  16
MINERAL POINT  MOCLDY    27  27 100 SE9       29.84F WCI  17
MADISON        CLOUDY    24  21  88 S10       29.87F WCI  14
MIDDLETON      CLOUDY    26  23  89 S7        29.88F WCI  18
WATERTOWN      LGT SNOW  22  22 100 S5        29.91F WCI  16
MONROE         CLOUDY    27  21  80 S9        29.87F WCI  17
JANESVILLE     CLOUDY    27  21  80 S8        29.89F WCI  18
$$

WIZ051-052-058>065-066-070>072-111400-
SOUTHEAST WISCONSIN

CITY           SKY/WX    TMP DP  RH WIND       PRES   REMARKS
MILWAUKEE      LGT SNOW  25  22  88 S7        29.93F WCI  17
WAUKESHA       LGT SNOW  21  19  93 S6        29.92F WCI  14
MILWAUKEE/TIMM LGT SNOW  23  19  86 S6        29.94F WCI  16
RACINE         LGT SNOW  24  22  91 S7        29.95F FOG     WCI  16
BURLINGTON     LGT SNOW  32  32 100 S3        29.93F
KENOSHA        LGT SNOW  25  21  85 S7        29.94F FOG     WCI  17
FOND DU LAC    CLOUDY    23  18  81 S9        29.89F WCI  13
SHEBOYGAN      LGT SNOW  22  21  96 S9        29.91F FOG     WCI  12
WEST BEND      LGT SNOW  23  21  93 S7        29.91F WCI  15
JUNEAU         LGT SNOW  21  19  92 SE9       29.90F WCI  11
$$

LSZ147-162-111400-
LAKE SUPERIOR

STATION/POSITION TIME  TEMP    WIND        PRES    WAVE
                       AIR SEA DIR/SP/G            HT/PER
                 (UTC) (F)     (DEG/KT/KT) (MB)    (FT/S)
DEVILS ISLAND    1200   22     190/  7/ 10 1009.4F
SAXON HARBOR     1230   22                 1008.1F
$$

LMZ867-665-643>646-111400-
LAKE MICHIGAN

STATION/POSITION TIME  TEMP    WIND        PRES    WAVE
                       AIR SEA DIR/SP/G            HT/PER
                 (UTC) (F)     (DEG/KT/KT) (MB)    (FT/S)
NORTHPORT PIER   1240   21     190/  2/  4 1013.2F
KEWAUNEE LAKESHO 1230   24     210/  6/ 10 1012.3F
SHEBOYGAN LAKESH 1200   24     220/ 10/ 12 1014.6F
PORT WASHINGTON  1230   24     210/  6/  9 1014.9F
MILWAUKEE LAKESH 1230   24     190/ 10/ 11   N/A
KENOSHA   LAKESH 1200   26     210/  7/  9 1014.9
$$

TC  - TEMPERATURE IN CELSIUS
VSB - VISIBILITY IN STATUTE MILES
WCI - WIND CHILL INDEX
HX  - HEAT INDEX





USA.gov is the U.S. government's official web portal to all federal, state and local government web resources and services.